Location: Waco, TX
(31.5480°N, 97.1670°W)
Time: 09:47:02
(UTC-06:00)

ISS - Pass Details

Date: 16 February 2018
Orbit: 403 x 407 km, 51.6° (Epoch: 21 February)

Event Time Altitude Azimuth Distance (km) Brightness Sun altitude
Rises 10:56:36 0° 259° (W) 2,309 -0.2 39.4°
Reaches altitude 10° 10:59:09 10° 280° (W) 1,452 -1.3 39.7°
Maximum altitude 11:01:25 17° 324° (NW) 1,093 -1.9 40.0°
Drops below altitude 10° 11:03:41 10° 9° (N) 1,455 -1.3 40.2°
Sets 11:06:16 0° 30° (NNE) 2,316 -0.2 40.5°
